Location: Castillon
(43.0896°N, 0.2156°E)
Time: 20:02:16
(UTC+00:00)

Cosmos 1844 Rocket - Pass Details

Date: 16 June 2021
Orbit: 823 x 846 km, 71.0° (Epoch: 31 July)

Event Time Altitude Azimuth Distance (km) Brightness Sun altitude
Rises 22:18:54 0° 330° (NNW) 3,410 7.5 -19.6°
Reaches altitude 10° 22:21:26 10° 324° (NW) 2,473 6.3 -19.8°
Maximum altitude 22:26:50 47° 253° (WSW) 1,111 3.3 -20.2°
Enters shadow 22:29:12 30° 199° (SSW) 1,472 3.5 -20.3°
